www.pogodaiklimat.ru

Погода и климат >> Архив погоды >> Китай >> Синьцзян-Уйгурский автономный район >> Чарклык


ПОГОДА в Чарклыке

  • Прогноз погоды в Чарклыке
  • Монитор погоды в Чарклыке

АРХИВ ПОГОДЫ в Чарклыке

Время (UTC), дата Ветер
(напр.,м/с)
 
Видим.   Явления Облачность Т
(С)
Тd
(С)
f
(%)
Тe
(С)
Тes
(С)
Комфортность P
(гПа)
Po
(гПа)
Тmin
(С)
Tmax
(С)
R
(мм)
R24
(мм)
S
(см)
18 19.05 ЮЗ 1 6000 м дымка ?/? +8.8 +5.9 82 +8 +8 1016.5 914.9 +22.5
21 19.05 Ю 1 7000 м дымка н/о +6.9 +3.2 77 +6 +6 1015.5 911.1
00 20.05 З 1 5000 м пыль 9/9
[]
+8.7 -0.9 51 +9 +9 1016.5 915.0
03 20.05 СВ 1 6000 м пыль ясно +19.0 -3.8 21 +20 +34 опасность
простуды
1015.9 915.6
06 20.05 В 2 11 км ясно +25.6 -3.9 14 +23 +43 комфорт 1012.9 912.9 +6.1
09 20.05 СВ 3 17 км ясно +29.0 -8.6 8 +25 +36 комфорт 1010.2 913.6
12 20.05 С 2 22 км ясно +27.7 -9.5 8 +24 +26 комфорт 1009.8 910.5
15 20.05 Ю 1 30 км н/о +12.8 +8.5 75 +13 +13 1013.1 911.0
18 20.05 ЮЗ 1 24 км ?/? +10.3 +4.4 67 +10 +10 1013.0 913.3 +29.4
21 20.05 ЮЗ 2 30 км н/о +8.4 +2.2 65 +7 +7 1012.7 909.1
00 21.05 Ю 1 26 км 9/9
[]
+9.3 +4.5 72 +9 +9 1012.8 913.3
03 21.05 С 1 18 км 6/6
[]
+24.3 -1.5 18 +23 +28 комфорт 1012.8 914.5
06 21.05 З 1 25 км 10/10
[]
+27.6 +2.6 20 +26 +26 жарко 1011.3 912.1 +6.7
09 21.05 ЮВ 1 21 км 10/10
[]
+25.5 +6.7 30 +25 +25 комфорт 1010.7 912.9
12 21.05 штиль 0 19 км 10/10
[]
+26.9 +10.2 35 +27 +27 жарко 1009.4 910.1
15 21.05 В 1 20 км н/о +14.6 +10.8 78 +15 +15 1009.7 908.5
18 21.05 Ю 1 28 км ?/? +12.8 +8.9 77 +13 +13 1008.4 909.8 +28.3
21 21.05 Ю 1 19 км н/о +12.1 +8.0 76 +12 +12 1007.5 905.7
00 22.05 Ю 1 14 км 9/9
[]
+12.4 +8.5 77 +12 +13 1006.9 908.3
03 22.05 С 1 12 км 9/9
[]
+27.2 +11.7 38 +28 +30 жарко 1006.3 909.5
06 22.05 СЗ 1 8000 м 9/9
[]
+32.6 +0.6 13 +29 +32 жарко 1004.3 906.9 +11.1
09 22.05 С 1 7000 м 9/9
[]
+34.3 -0.4 11 +31 +32 жарко 1001.6 907.4
12 22.05 штиль 0 7000 м пыль 9/9
[]
+27.6 +9.4 32 +28 +28 жарко 1001.7 903.7
15 22.05 ЮВ 1 7000 м н/о +17.7 +12.8 73 +19 +19 1001.4 902.1
18 22.05 ЮВ 1 10 км ?/? +14.3 +11.6 84 +15 +15 1000.4 903.6 +34.4
21 22.05 ЮВ 1 10 км н/о +12.5 +10.2 86 +12 +12 999.6 898.7
00 23.05 ЮВ 1 10 км ясно +12.9 +10.6 86 +13 +14 1000.4 902.6
03 23.05 В 1 9000 м 9/9
[]
+29.6 +9.2 28 +29 +31 жарко 998.7 903.3
06 23.05 В 3 10 км ясно +34.3 -1.7 10 +31 +47 жарко 996.5 900.4 +11.2
09 23.05 СВ 3 12 км 9/9
[]
+35.0 -4.1 8 +31 +32 жарко 994.1 900.8
12 23.05 СВ 2 15 км 9/9
[]
+31.8 -1.1 12 +28 +29 жарко 994.8 898.2
15 23.05 СВ 3 11 км н/о +26.9 -7.3 10 +24 +24 комфорт 994.8 899.0
18 23.05 В 9
{20}
800 м пыльный позёмок ?/? +21.9 +2.1 27 +22 +22 комфорт 996.2 901.2 +35.4
21 23.05 В 6
{20}
6000 м мгла ?/? +18.3 +0.9 31 +18 +18 997.1 898.4
00 24.05 В 8
{20}
7000 м 9/9
[]
+17.5 -0.7 29 +16 +16 1000.6 904.2
03 24.05 В 10
{24}
300 м сильная пыльная буря {метель} ?/? +19.9 -3.1 21 +19 +19 1001.9 903.2
06 24.05 В 9
{24}
2000 м пыльный позёмок 9/9
[]
+23.7 +0.1 21 +23 +23 комфорт 1001.4 904.3 +17.1
09 24.05 СВ 8
{23}
800 м пыльный позёмок ?/? +25.6 -1.2 17 +24 +24 комфорт 1000.0 903.3
12 24.05 В 10
{22}
500 м пыльная буря {метель} ?/? +25.3 -6.1 12 +23 +23 комфорт 1000.3 902.9
15 24.05 В 9
{22}
2400 м мгла ?/? +22.1 -6.6 14 +21 +21 комфорт 1001.8 903.8
18 24.05 СВ 5
{20}
10 км ?/? +18.3 -6.4 18 +18 +18 1001.4 903.8 +26.0
21 24.05 В 7
{18}
1800 м мгла ?/? +15.3 -6.9 21 +14 +14 1002.5 902.3
00 25.05 СВ 5
{18}
14 км 9/9
[]
+13.9 -6.9 23 +13 +13 1005.5 907.0
03 25.05 СВ 5 14 км 9/9
[]
+19.1 -5.8 18 +19 +19 1006.3 906.9
06 25.05 СВ 4 2200 м пыль 10/10
[]
+21.9 -3.5 18 +21 +21 комфорт 1007.3 908.8 +13.8
09 25.05 СВ 2 3500 м пыль 10/10
[]
+24.9 -2.6 16 +23 +23 комфорт 1006.5 909.0
12 25.05 СВ 2 4700 м пыль 10/10
[]
+24.3 -5.9 13 +22 +22 комфорт 1006.9 908.1
15 25.05 Ю 3 8000 м н/о +17.8 +2.1 35 +18 +18 1008.4 908.4
18 25.05 ЮЗ 1 9000 м ?/? +12.6 +6.9 68 +13 +13 1008.3 908.8 +25.2
21 25.05 С 1 13 км н/о +10.8 +7.1 78 +11 +11 1008.4 906.1
00 26.05 С 1 23 км 8/8
[]
+10.3 +6.4 77 +10 +10 1010.6 910.9
03 26.05 СВ 3 5000 м пыль 9/9
[]
+21.4 -7.2 14 +20 +21 1011.0 911.9
06 26.05 В 6 3200 м пыльный позёмок 9/9
[]
+25.5 -9.7 9 +23 +23 комфорт 1010.8 911.6 +9.8
09 26.05 СВ 7 3200 м пыльный позёмок 9/9
[]
+26.3 -10.6 8 +23 +23 комфорт 1009.4 912.0
12 26.05 В 7 2600 м пыльный позёмок ?/? +24.3 -13.7 7 +21 +21 комфорт 1010.7 911.0
15 26.05 СВ 2 4800 м мгла ?/? +20.8 -9.6 12 +21 +21 комфорт 1011.9 912.5

 

Местоположение метеостанции Чарклык (Синьцзян-Уйгурский автономный район, Китай): широта 39.03 долгота 88.17 высота над уровнем моря 889 м.

В архиве по умолчанию представлена погода в Чарклыке за последнюю неделю. Архивные данные за месяц целиком и за предыдущие месяцы, начиная с января 2011 года, Вы можете получить, выбрав интересующий диапазон дат из раскрывающегося списка и нажав кнопку "Ввод!".


*Определитесь, кто Вы:
робот инопланетянин человек

Внимание! Время в таблицах - всемирное. Для получения местного времени необходимо прибавить поправку, которая равна 8 ч.

Смотрите также архив погоды в соседних городах и на ближайших метеорологических станциях:

Погода в Тиканлике (Синьцзян-Уйгурский автономный район, Китай) (182 км)
Погода в Маннае (Цинхай, Китай) (248 км)
Погода в Корле (Синьцзян-Уйгурский автономный район, Китай) (348 км)
Погода в Тажонге (Синьцзян-Уйгурский автономный район, Китай) (389 км)
Погода в Балун Тай Кун (Синьцзян-Уйгурский автономный район, Китай) (433 км)
Погода в Турфане (Синьцзян-Уйгурский автономный район, Китай) (442 км)
Погода в Лэнху (Цинхай, Китай) (451 км)
Погода в Урумчи (Синьцзян-Уйгурский автономный район, Китай) (532 км)
Погода в Куче (Синьцзян-Уйгурский автономный район, Китай) (534 км)
Погода в Цзяньфане (Синьцзян-Уйгурский автономный район, Китай) (553 км)

Пояснения к столбцам:

Ветер - указаны скорость ветра в м/с - средняя за 10 мин, порывы в срок и между сроками (в фигурных скобках) и направление, откуда дует ветер: С - северный, СВ - северо-восточный, В - восточный, ЮВ - юго-восточный, Ю - южный, ЮЗ - юго-западный, З - западный, СЗ - северо-западный.
Видимость - горизонтальная дальность видимости в метрах или километрах. При видимости от 1 до 10 км при отсутствии осадков обычно наблюдается дымка, при ухудшении видимости до 1 км и менее - туман. В сухую погоду видимость может ухудшаться дымом, пылью или мглою.
Явления - указаны атмосферные явления, наблюдавшиеся в срок или в последний час перед сроком; фигурными скобками обозначены явления, наблюдавшиеся между сроками (за 1-3 часа до срока); квадратными скобками обозначены град или гололедные отложения с указанием их диаметра в мм.
Облачность - указаны через наклонную черту общая и нижняя облачность в баллах и высота нижней границы облаков в метрах; квадратными скобками обозначены формы облаков: Ci - перистые, Cs - перисто-слоистые, Cc - перисто-кучевые, Ac - высококучевые, As - высокослоистые, Sc - слоисто-кучевые, Ns - слоисто-дождевые, Cu - кучевые, Cb - кучево-дождевые. Подробнее классификацию облаков см. в Атласе облаков (PDF).
T - Температура воздуха - температура, измеренная на высоте 2 м над землей.
Td - Температура точки росы - температура, при понижении до которой содержащийся в воздухе водяной пар достигнет насыщения.
f - Относительная влажность воздуха - влажноcть воздуха, измеренная на высоте 2 м над землей.
Te - Эффективная температура - температура, которую ощущает одетый по сезону человек в тени. Характеристика душности погоды. При расчете учитывается влияние влажности воздуха и скорости ветра на теплоощущения человека.
Tes - Эффективная температура на солнце - температура, которую ощущает человек, с поправкой на солнечный нагрев. Характеристика знойности погоды. Зависит от высоты солнца над горизонтом, облачности и скорости ветра. Ночью, в пасмурную погоду, а также при ветре 12 м/с и более поправка равна нулю.
P - Атмосферное давление - приведенное к уровню моря атмосферное давление.
Po - Атмосферное давление - измеренное на уровне метеостанции атмосферное давление.
Tmin - Минимальная температура - минимум температуры воздуха на высоте 2 м над землей.
Tmax - Максимальная температура - максимум температуры воздуха на высоте 2 м над землей.
R - Количество осадков - Количество выпавших осадков за период времени, мм. При наведении курсора мыши на число - период времени, за который выпало указанное количество осадков.
R24 - Количество осадков - Количество выпавших осадков за 24 часа, мм.
S - Снежный покров - Высота снежного покрова, см. При наведении курсора мыши на число - состояние снежного покрова и степень покрытия местности в баллах.